Weather History for Perryton, TX

Change the Weather History Date:

Monday, October 10, 2011

  Actual Average Record
Temperature  
Mean Temperature 55 °F -  
Max Temperature 69 °F 72 °F 93 °F (1965)
Min Temperature 41 °F 40 °F 24 °F (1970)
Degree Days  
Heating Degree Days 10    
Growing Degree Days 5 (Base 50)    
Moisture  
Dew Point 49 °F    
Average Humidity 81    
Maximum Humidity 100    
Minimum Humidity 49    
Precipitation  
Precipitation 0.01 in - - ()
Sea Level Pressure  
Sea Level Pressure 30.03 in    
Wind  
Wind Speed 9 mph (South)    
Max Wind Speed 20 mph    
Max Gust Speed 24 mph    
Visibility 6 miles    
Events      
Averages and records for this station are not official NWS values.
T = Trace of Precipitation, MM = Missing Value Source: NWS Daily Summary

Daily Weather History Graph

Daily Weather History Graph

Search for Another Location

Airport:

Trip Planner

Search our weather history database for the weather conditions in past years. The results will help you decide how hot, cold, wet, or windy it might be!

Date:

Astronomy

Oct. 10, 2011 Rise Set
Actual Time 7:45 AM CDT 7:13 PM CDT
Civil Twilight 7:19 AM CDT 7:39 PM CDT
Nautical Twilight 6:49 AM CDT 8:09 PM CDT
Astronomical Twilight 6:19 AM CDT 8:39 PM CDT
Moon 6:18 PM CDT (10/10) 6:29 AM CDT (10/10)
Length of Visible Light 12h 19m
Length of Day
11h 28m
Waxing Gibbous, 98% of the Moon is Illuminated
Oct 10
Waxing Gibbous
Oct 11
Full
Oct 19
Last Quarter
Oct 26
New
Nov 2
First Quarter

Hourly Weather History & Observations

Time (CDT) Temp. Windchill Dew Point Humidity Pressure Visibility Wind Dir Wind Speed Gust Speed Precip Events Conditions
12:15 AM 42.8 °F 39.3 °F 42.8 °F 100% 30.10 in 7.0 mi SSE 5.8 mph - N/A   Clear
12:35 AM 42.8 °F 39.3 °F 41.0 °F 93% 30.10 in 7.0 mi South 5.8 mph - N/A   Clear
12:55 AM 42.8 °F 40.1 °F 41.0 °F 93% 30.10 in 5.0 mi South 4.6 mph - N/A   Clear
1:35 AM 42.8 °F 40.1 °F 41.0 °F 93% 30.09 in 0.8 mi SSW 4.6 mph - N/A   Unknown
1:55 AM 41.0 °F 36.4 °F 41.0 °F 100% 30.09 in 1.2 mi SSW 6.9 mph - N/A   Unknown
2:15 AM 42.8 °F 38.6 °F 41.0 °F 93% 30.09 in 0.5 mi SSW 6.9 mph - N/A   Unknown
2:35 AM 42.8 °F 38.0 °F 41.0 °F 93% 30.09 in 0.2 mi SSW 8.1 mph - N/A   Unknown
3:15 AM 41.0 °F 37.1 °F 41.0 °F 100% 30.08 in 0.5 mi South 5.8 mph - N/A   Unknown
3:35 AM 41.0 °F 37.1 °F 39.2 °F 93% 30.08 in 0.8 mi SSW 5.8 mph - N/A   Unknown
3:55 AM 41.0 °F 39.0 °F 41.0 °F 100% 30.08 in 0.2 mi SSW 3.5 mph - N/A   Overcast
4:15 AM 41.0 °F 38.0 °F 39.2 °F 93% 30.08 in 1.5 mi SSW 4.6 mph - N/A   Scattered Clouds
4:35 AM 42.8 °F 38.6 °F 41.0 °F 93% 30.08 in 2.0 mi SSW 6.9 mph - N/A   Clear
4:55 AM 42.8 °F 39.3 °F 41.0 °F 93% 30.07 in 2.5 mi South 5.8 mph - N/A   Clear
5:15 AM 44.6 °F 40.7 °F 42.8 °F 93% 30.07 in 0.2 mi South 6.9 mph - N/A   Overcast
5:35 AM 44.6 °F 41.4 °F 42.8 °F 93% 30.07 in 0.2 mi SSW 5.8 mph - N/A   Overcast
5:55 AM 44.6 °F 40.7 °F 42.8 °F 93% 30.08 in 0.2 mi SSW 6.9 mph - N/A   Overcast
6:15 AM 44.6 °F 40.2 °F 42.8 °F 93% 30.08 in 0.2 mi SW 8.1 mph - N/A   Overcast
6:35 AM 44.6 °F 40.7 °F 42.8 °F 93% 30.08 in 0.5 mi SW 6.9 mph - N/A   Overcast
6:55 AM 44.6 °F 41.4 °F 42.8 °F 93% 30.08 in 0.2 mi SSW 5.8 mph - N/A   Overcast
7:15 AM 44.6 °F 41.4 °F 44.6 °F 100% 30.08 in 0.2 mi SSW 5.8 mph - N/A   Overcast
7:35 AM 44.6 °F 39.7 °F 44.6 °F 100% 30.08 in 0.2 mi SSW 9.2 mph - 0.01 in   Overcast
7:55 AM 46.4 °F 40.7 °F 44.6 °F 93% 30.09 in 0.2 mi SSW 12.7 mph - 0.01 in   Overcast
8:55 AM 50.0 °F - 48.2 °F 94% 30.10 in 0.2 mi SW 10.4 mph - N/A   Overcast
9:15 AM 50.0 °F - 50.0 °F 100% 30.11 in 1.0 mi SSW 13.8 mph - N/A   Overcast
10:15 AM 51.8 °F - 50.0 °F 94% 30.11 in 1.5 mi SW 13.8 mph - N/A   Overcast
10:35 AM 51.8 °F - 51.8 °F 100% 30.11 in 3.0 mi SW 13.8 mph - N/A   Overcast
10:55 AM 51.8 °F - 51.8 °F 100% 30.11 in 4.0 mi SW 16.1 mph - N/A   Overcast
11:15 AM 51.8 °F - 51.8 °F 100% 30.11 in 10.0 mi SW 15.0 mph - N/A   Overcast
11:35 AM 53.6 °F - 53.6 °F 100% 30.10 in 10.0 mi SW 13.8 mph 17.3 mph N/A   Overcast
11:55 AM 55.4 °F - 53.6 °F 94% 30.10 in 7.0 mi SW 11.5 mph - N/A   Overcast
12:15 PM 59.0 °F - 53.6 °F 82% 30.10 in 10.0 mi SW 15.0 mph - N/A   Overcast
12:35 PM 59.0 °F - 51.8 °F 77% 30.09 in 10.0 mi SW 13.8 mph - N/A   Overcast
12:55 PM 60.8 °F - 53.6 °F 77% 30.08 in 10.0 mi SSW 12.7 mph - N/A   Overcast
1:15 PM 62.6 °F - 53.6 °F 72% 30.06 in 10.0 mi SW 15.0 mph 18.4 mph N/A   Mostly Cloudy
1:35 PM 64.4 °F - 53.6 °F 68% 30.05 in 10.0 mi SW 12.7 mph - N/A   Scattered Clouds
1:55 PM 64.4 °F - 53.6 °F 68% 30.03 in 10.0 mi SSW 10.4 mph 17.3 mph N/A   Clear
2:15 PM 66.2 °F - 53.6 °F 64% 30.03 in 10.0 mi South 10.4 mph - N/A   Clear
2:35 PM 68.0 °F - 53.6 °F 60% 30.01 in 10.0 mi South 12.7 mph 19.6 mph N/A   Clear
2:55 PM 68.0 °F - 53.6 °F 60% 30.00 in 10.0 mi South 12.7 mph - N/A   Clear
3:15 PM 68.0 °F - 51.8 °F 56% 29.99 in 10.0 mi South 11.5 mph 15.0 mph N/A   Clear
3:35 PM 69.8 °F - 51.8 °F 53% 29.98 in 10.0 mi SSE 11.5 mph 17.3 mph N/A   Clear
3:55 PM 69.8 °F - 53.6 °F 56% 29.98 in 10.0 mi South 12.7 mph 18.4 mph N/A   Clear
4:15 PM 69.8 °F - 51.8 °F 53% 29.97 in 10.0 mi South 11.5 mph 21.9 mph N/A   Clear
4:35 PM 69.8 °F - 51.8 °F 53% 29.96 in 10.0 mi SSE 13.8 mph 21.9 mph N/A   Scattered Clouds
4:55 PM 69.8 °F - 51.8 °F 53% 29.95 in 10.0 mi SSE 15.0 mph 23.0 mph N/A   Scattered Clouds
5:15 PM 69.8 °F - 50.0 °F 49% 29.94 in 10.0 mi SSE 19.6 mph - N/A   Mostly Cloudy
5:35 PM 69.8 °F - 51.8 °F 53% 29.94 in 10.0 mi SSE 18.4 mph - N/A   Mostly Cloudy
5:55 PM 69.8 °F - 51.8 °F 53% 29.94 in 10.0 mi SSE 17.3 mph - N/A   Mostly Cloudy
6:15 PM 69.8 °F - 51.8 °F 53% 29.93 in 10.0 mi SSE 16.1 mph 21.9 mph N/A   Mostly Cloudy
6:35 PM 68.0 °F - 53.6 °F 60% 29.93 in 10.0 mi SE 17.3 mph - N/A   Scattered Clouds
6:55 PM 64.4 °F - 55.4 °F 73% 29.93 in 10.0 mi SSE 19.6 mph 24.2 mph N/A   Clear
7:15 PM 62.6 °F - 55.4 °F 77% 29.93 in 10.0 mi SE 18.4 mph - N/A   Clear
7:35 PM 62.6 °F - 55.4 °F 77% 29.93 in 10.0 mi SSE 16.1 mph - N/A   Clear
7:55 PM 60.8 °F - 53.6 °F 77% 29.94 in 10.0 mi SSE 16.1 mph - N/A   Clear
8:15 PM 60.8 °F - 53.6 °F 77% 29.94 in 10.0 mi SE 17.3 mph - N/A   Clear
8:35 PM 60.8 °F - 53.6 °F 77% 29.95 in 10.0 mi SSE 17.3 mph - N/A   Clear
8:55 PM 59.0 °F - 53.6 °F 82% 29.96 in 10.0 mi SSE 16.1 mph - N/A   Clear
9:15 PM 59.0 °F - 53.6 °F 82% 29.96 in 10.0 mi SSE 16.1 mph - N/A   Clear
9:35 PM 59.0 °F - 53.6 °F 82% 29.96 in 10.0 mi SSE 12.7 mph - N/A   Clear
9:55 PM 59.0 °F - 53.6 °F 82% 29.96 in 10.0 mi SSE 13.8 mph - N/A   Clear
10:15 PM 57.2 °F - 53.6 °F 88% 29.96 in 10.0 mi SSE 12.7 mph - N/A   Clear
10:35 PM 57.2 °F - 53.6 °F 88% 29.96 in 10.0 mi SSE 13.8 mph - N/A   Clear
10:55 PM 57.2 °F - 53.6 °F 88% 29.96 in 10.0 mi SSE 16.1 mph - N/A   Clear
11:15 PM 55.4 °F - 53.6 °F 94% 29.96 in 10.0 mi SSE 13.8 mph - N/A   Clear
11:35 PM 55.4 °F - 53.6 °F 94% 29.96 in 10.0 mi South 13.8 mph - N/A   Clear
11:55 PM 55.4 °F - 53.6 °F 94% 29.94 in 10.0 mi South 13.8 mph - N/A   Clear